Overview Statistics Trail Chart Weather Telemetry Raw packets
 

This is the latest recevied weather packets stored in our database for station/object KM8V-8. If no packets are shown the sender has not sent any weather packets the latest 10 day(s).

<< 43 44 45 46 47 48 49 >>
Time Temp. Humidity Pressure Rain* Wind** Luminosity Snow
1777463719 11.11° C 99% 1010.7 hPa 0.25 mm - 38 W/m² -
1777463419 11.11° C 99% 1010.8 hPa 0.25 mm - 27 W/m² -
1777463121 10.56° C 99% 1010.9 hPa 0.25 mm - 27 W/m² -
1777462819 10.56° C 99% 1010.9 hPa 0.25 mm - 28 W/m² -
1777462520 10.56° C 99% 1011 hPa 0.25 mm - 23 W/m² -
1777462220 10.56° C 99% 1011.2 hPa 0.25 mm - 26 W/m² -
1777461920 10.56° C 99% 1011.3 hPa 0.25 mm - 31 W/m² -
1777461620 10.56° C 99% 1011.4 hPa 0.25 mm - 26 W/m² -
1777461320 10.56° C 99% 1011.4 hPa 0 mm - 10 W/m² -
1777461020 10.56° C 99% 1011.5 hPa 0 mm - 8 W/m² -
1777460720 10° C 99% 1011.5 hPa 0 mm - 7 W/m² -
1777460420 10° C 99% 1011.5 hPa 0 mm - 8 W/m² -
1777460125 10° C 99% 1011.5 hPa 0 mm - 8 W/m² -
1777459821 10° C 99% 1011.5 hPa 0 mm - 8 W/m² -
1777459520 10° C 99% 1011.5 hPa 0 mm - 6 W/m² -
1777459221 10° C 99% 1011.5 hPa 0 mm - 5 W/m² -
1777458921 10° C 99% 1011.5 hPa 0 mm - 4 W/m² -
1777458621 10° C 99% 1011.5 hPa 0 mm - 3 W/m² -
1777458321 10° C 99% 1011.5 hPa 0 mm - 1 W/m² -
1777458021 10° C 98% 1011.4 hPa 0 mm - 1 W/m² -
1777457721 10° C 98% 1011.4 hPa 0 mm - 0 W/m² -
1777457421 9.44° C 98% 1011.4 hPa 0 mm - 0 W/m² -
1777457121 9.44° C 98% 1011.4 hPa 0 mm - 0 W/m² -
1777456821 9.44° C 98% 1011.2 hPa 0 mm - 0 W/m² -
1777456522 9.44° C 98% 1011.3 hPa 0 mm - 0 W/m² -

* Rain latest hour (hover to see other rain measurements)
** Current wind speed in m/s (hover to see current wind gust speed)